Tracking 32579 objects as of 16-Dec-2025
HD Live streaming from Space Station
objects crossing your sky now

STARLINK-4711

Track STARLINK-4711 now!
10-day predictions
STARLINK-4711 is classified as:


NORAD ID: 53701
Int'l Code: 2022-107B
Perigee: 546.0 km
Apogee: 547.8 km
Inclination: 53.2 °
Period: 95.4 minutes
Semi major axis: 6917 km
RCS: Unknown
Launch date: September 5, 2022
Source: United States (US)
Launch site: AIR FORCE EASTERN TEST RANGE (AFETR)
Your satellite tracking list
Your tracking list is empty




NASA's NSSDC Master Catalog

Two Line Element Set (TLE):
1 53701U 22107B   25349.92233284 -.00000132  00000-0  98223-5 0  9990
2 53701  53.2181 259.7551 0001337  88.1033 272.0112 15.08831303182210
Source of the keplerian elements: AFSPC